Vorticity
8 11 16 13 8 3 10 10 10 11 10 11 13 16 14 13 15 18 23 18 16 24
11 10 5 4 8 8 10 8 8 8 12 12 17 16 16 16 17 13 13 22 41 26
3 6 5 8 6 6 7 10 17 14 14 14 13 11 12 15 11 16 32 21 9 13
8 7 8 9 10 12 12 14 13 10 11 9 11 13 13 12 18 26 19 12 11 9
8 8 14 10 7 13 14 13 11 9 10 10 13 11 11 13 19 13 0 0 6 2
14 10 6 10 14 13 10 9 9 9 11 11 11 13 15 17 11 3 3 7 3 2
8 12 15 12 9 9 8 8 10 11 11 12 13 13 18 12 12 9 -2 1 8 3
8 5 7 7 6 8 10 10 10 11 11 12 13 16 16 14 7 4 6 18 3 11
7 6 7 9 10 11 10 9 10 11 11 13 13 13 21 8 13 10 11 8 4 11
8 10 11 10 9 10 10 11 12 13 13 15 13 11 14 12 14 13 10 11 3 11
9 9 8 9 11 11 12 13 12 12 14 15 12 14 14 6 1 3 3 10 9 9
8 10 11 12 15 22 16 19 20 22 16 15 12 15 13 14 9 3 7 5 8 6
13 14 12 17 21 23 25 25 36 28 20 17 13 12 12 15 15 13 9 5 10 5
9 12 18 18 17 9 18 19 13 23 20 17 15 16 13 14 16 13 15 13 12 4
Height
5697 5693 5690 5686 5682 5677 5672 5667 5661 5656 5652 5647 5640 5633 5627 5621 5614 5609 5604 5598 5592 5585
5681 5677 5673 5668 5664 5659 5655 5650 5645 5639 5632 5625 5618 5611 5606 5602 5598 5592 5586 5581 5575 5569
5665 5661 5656 5652 5647 5643 5639 5633 5626 5618 5612 5606 5600 5595 5590 5585 5580 5576 5571 5567 5562 5556
5649 5644 5639 5634 5629 5623 5617 5612 5606 5601 5594 5588 5583 5578 5573 5569 5564 5562 5559 5554 5552 5547
5634 5628 5621 5615 5609 5604 5599 5594 5588 5582 5577 5572 5566 5562 5559 5555 5551 5549 5546 5545 5542 5537
5616 5610 5603 5598 5591 5586 5581 5574 5569 5564 5558 5554 5552 5550 5545 5542 5540 5536 5535 5536 5532 5528
5598 5592 5585 5579 5573 5567 5561 5556 5551 5547 5543 5540 5538 5535 5531 5529 5526 5524 5524 5523 5521 5518
5578 5572 5566 5559 5553 5547 5542 5538 5534 5530 5527 5524 5522 5519 5516 5514 5512 5510 5511 5510 5510 5507
5558 5552 5546 5540 5534 5529 5523 5518 5515 5512 5510 5508 5505 5502 5500 5499 5498 5497 5497 5497 5498 5497
5534 5528 5522 5517 5511 5506 5502 5498 5495 5494 5492 5490 5488 5486 5485 5484 5484 5484 5484 5485 5485 5485
5513 5506 5499 5494 5488 5483 5479 5476 5474 5472 5471 5470 5469 5469 5468 5469 5470 5471 5471 5472 5473 5472
5492 5485 5477 5473 5466 5458 5454 5453 5451 5449 5449 5449 5449 5450 5451 5452 5455 5456 5458 5459 5460 5460
5471 5462 5454 5446 5442 5436 5430 5429 5427 5426 5426 5427 5429 5430 5432 5435 5438 5440 5442 5445 5447 5449
5446 5435 5427 5420 5416 5412 5408 5407 5407 5406 5406 5408 5409 5411 5415 5418 5421 5424 5426 5429 5432 5436